This demonstration page uses our WeatherBlox Daily Observations layout. Learn more.

Left ArrowRight Arrow

Hourly Observations for August 12, 2015

Temp ( °F °C ) Dew Point ( °F °C ) Humidity (%) Winds ( mph kmh ) Pressure ( in mb ) Visibility ( mi km ) Precip ( " mm )
12:53 am 00:53 Clear 67 19.4 61 16.1 81 81 NNW 7 11 30.05 1018 10 16 N/A
1:53 am 01:53 Clear 64 17.8 60 15.6 87 87 NW 5 7 30.06 1018 10 16 N/A
2:53 am 02:53 Clear 63 17.2 59 15 87 87 NNW 3 6 30.05 1018 10 16 N/A
3:53 am 03:53 Clear 60 15.6 59 15 96 96 N N/A 30.06 1018 10 16 N/A
4:53 am 04:53 Clear 60 15.6 58 14.4 93 93 N N/A 30.07 1018 10 16 N/A
5:53 am 05:53 Clear 60 15.6 58 14.4 93 93 N N/A 30.08 1019 10 16 N/A
6:53 am 06:53 Mostly Cloudy 62 16.7 59 15 90 90 N N/A 30.09 1019 10 16 N/A
7:53 am 07:53 Mostly Sunny 64 17.8 59 15 84 84 WNW 3 6 30.10 1019 10 16 N/A
8:53 am 08:53 Sunny 68 20 60 15.6 76 76 N 6 9 30.11 1020 10 16 N/A
9:53 am 09:53 Sunny 71 21.7 61 16.1 71 71 NNW 6 9 30.12 1020 10 16 N/A
10:53 am 10:53 Sunny 74 23.3 61 16.1 64 64 N 8 13 30.13 1020 10 16 N/A
11:53 am 11:53 Sunny 75 23.9 61 16.1 62 62 VRB 6 9 30.13 1020 10 16 N/A
12:53 pm 12:53 Sunny 77 25 60 15.6 56 56 N 9 15 30.12 1020 10 16 N/A
1:53 pm 13:53 Sunny 78 25.6 58 14.4 50 50 NNW 12 19 30.11 1020 10 16 N/A
2:53 pm 14:53 Partly Cloudy 79 26.1 58 14.4 49 49 N 9 15 30.10 1019 10 16 N/A
3:53 pm 15:53 Partly Cloudy 78 25.6 58 14.4 50 50 N 8 13 30.10 1019 10 16 N/A
4:53 pm 16:53 Partly Cloudy 76 24.4 58 14.4 54 54 N 9 15 30.10 1019 10 16 N/A
5:53 pm 17:53 Sunny 78 25.6 58 14.4 50 50 NNW 8 13 30.09 1019 10 16 N/A
6:53 pm 18:53 Sunny 77 25 59 15 54 54 N 6 9 30.09 1019 10 16 N/A
7:53 pm 19:53 Sunny 74 23.3 58 14.4 57 57 N 5 7 30.09 1019 10 16 N/A
8:53 pm 20:53 Clear 66 18.9 60 15.6 81 81 N 3 6 30.10 1019 10 16 N/A
9:53 pm 21:53 Clear 62 16.7 59 15 90 90 N N/A 30.10 1019 10 16 N/A
10:53 pm 22:53 Clear 61 16.1 59 15 93 93 N N/A 30.11 1020 10 16 N/A
11:53 pm 23:53 Clear 60 15.6 58 14.4 93 93 N N/A 30.11 1020 10 16 N/A

Powered by AerisWeather